#timestamp,LO_Frequency,Hit,StdDev 
1510236015.3,286047000.0,N
1510236035.1,286047002.6,N
1510236055.9,286047000.8,N
1510236075.7,286046998.4,N
1510236095.5,286047001.2,N
1510236115.4,286046998.2,N
1510236135.2,286047000.0,N
1510236155.0,286047003.6,N
1510236155.9,286047003.6,N
1510236175.8,286047002.0,N
1510236195.6,286047001.0,N
1510236215.4,286047001.6,N
1510236235.3,286047004.2,N
1510236255.1,286046998.3,N
1510236275.8,286046998.6,N
1510236295.7,286047000.5,N
1510236315.5,286047002.3,N
1510236335.3,286047000.3,N
1510236355.2,286046999.0,N
1510236375.9,286046999.8,N
1510236395.7,286047000.7,N
1510236415.6,286046994.9,N
1510236435.4,286046996.9,N
1510236455.2,286046995.8,N
1510236475.1,286046998.0,N
1510236476.0,286046998.0,N
1510236495.8,286046996.5,N
1510236515.6,286047002.8,N
1510236535.5,286047003.8,N
1510236555.3,286047003.6,N
1510236575.1,286047005.6,N
1510236595.9,286047005.6,N
1510236615.7,286047002.1,N
1510236635.5,286047001.6,N
1510236655.4,286047002.7,N
1510236675.2,286047000.7,N
1510236695.0,286046999.6,N
1510236695.9,286046999.6,N
1510236715.8,286046997.7,N
1510236735.6,286047002.7,N
1510236755.4,286047002.8,N
1510236775.2,286046999.8,N
1510236795.1,286047002.2,N
1510236796.0,286047002.2,N
1510236815.8,286047003.8,N
1510236835.6,286047003.3,N
1510236855.5,286047005.5,N
1510236875.3,286047003.6,N
1510236895.1,286047004.7,N
1510236915.9,286047001.9,N
1510236935.7,286047002.4,N
1510236955.5,286047003.4,N
1510236975.4,286047006.6,N
1510236995.2,286047009.8,Y
1510237015.0,286047013.6,P
1510237016.0,286047013.6,N
1510237035.8,286047011.9,N
1510237055.6,286047010.4,N
1510237075.4,286047008.8,N
1510237095.3,286047006.1,N
1510237115.1,286047006.6,N
1510237135.8,286047009.2,N
1510237155.7,286047005.6,N
1510237175.5,286047004.4,N
1510237195.3,286047002.3,N
1510237215.2,286046998.4,N
1510237235.9,286046999.2,N
1510237255.7,286046999.4,N
1510237275.6,286046998.5,N
1510237295.4,286047000.6,N
1510237315.2,286047000.1,N
1510237335.1,286046999.7,N
1510237336.0,286046999.7,N
1510237355.8,286047002.4,N
1510237375.6,286047001.9,N
1510237395.5,286047003.5,N
1510237415.3,286047003.2,N
1510237435.1,286047004.9,N
1510237455.9,286047005.4,N
1510237475.7,286047001.8,N
1510237495.5,286047000.8,N
1510237515.3,286046998.1,N
1510237535.2,286046998.2,N
1510237555.0,286047001.1,N
1510237555.9,286047001.1,N
1510237575.7,286046999.7,N
1510237595.6,286047001.6,N
1510237615.4,286047000.1,N
1510237635.2,286047000.1,N
1510237655.1,286047001.6,N
1510237656.0,286047001.6,N
1510237675.8,286047000.1,N
1510237695.6,286047000.1,N
1510237715.5,286046998.9,N
1510237735.3,286046999.3,N
1510237755.1,286046998.6,N
1510237775.9,286047002.8,N
1510237795.7,286047001.6,N
1510237815.5,286047004.2,N
1510237835.4,286047006.0,Y
1510237855.2,286047003.2,P
1510237875.0,286047000.5,N
1510237875.9,286047000.5,N
1510237895.8,286046998.3,N
1510237915.6,286046999.0,N
1510237935.4,286047000.6,N
1510237955.3,286047002.1,N
1510237975.1,286047004.0,N
1510237976.0,286047004.0,N
1510237995.8,286047002.5,N
1510238015.7,286047002.3,N
1510238035.5,286047003.9,N
1510238055.3,286047000.5,N
1510238075.2,286046997.8,N
1510238095.9,286046995.1,N
1510238115.7,286046996.8,N
1510238135.5,286046997.0,N
1510238155.4,286046997.5,N
1510238175.2,286046996.2,N
1510238195.0,286046995.7,N
1510238195.9,286046995.7,N
1510238215.8,286046994.1,N
1510238235.6,286046993.3,N
1510238255.4,286046993.5,N
1510238275.3,286046997.1,N
1510238295.1,286046993.6,N
1510238315.8,286046995.9,N
1510238335.7,286046997.9,N
1510238355.5,286046996.9,N
1510238375.3,286046999.0,N
1510238395.2,286047005.9,N
1510238415.9,286047004.8,N
1510238435.7,286047004.0,N
1510238455.6,286047002.8,N
1510238475.4,286047000.2,N
1510238495.2,286046999.2,N
1510238515.1,286046994.8,N
1510238516.0,286046994.8,N
1510238535.8,286046992.0,N
1510238555.6,286046992.8,N
1510238575.4,286046991.5,N
1510238595.3,286046989.8,N
1510238615.1,286046992.7,N
1510238635.8,286046992.4,N
1510238655.7,286046990.1,N
1510238675.5,286046991.1,N
1510238695.3,286046992.3,N
1510238715.2,286046990.4,N
1510238735.9,286046990.5,N
1510238755.7,286046990.3,N
1510238775.6,286046988.6,N
1510238795.4,286046989.4,N
1510238815.2,286046988.5,N
1510238835.1,286046988.6,N
1510238836.0,286046988.6,N
1510238855.8,286046989.7,N
1510238875.6,286046992.9,N
1510238895.5,286046993.0,N
1510238915.3,286046991.2,N
1510238935.1,286046990.5,N
1510238955.9,286046990.1,N
1510238975.7,286046994.4,N
1510238995.5,286046992.6,N
1510239015.4,286046996.9,N
1510239035.2,286046997.1,N
1510239055.0,286046997.2,N
1510239055.9,286046997.2,N
1510239075.7,286046997.6,N
1510239095.6,286046998.5,N
1510239115.4,286047000.2,N
1510239135.2,286046997.0,N
1510239155.1,286046995.0,N
1510239156.0,286046995.0,N
1510239175.8,286046996.5,N
1510239195.6,286046997.3,N
1510239215.5,286046993.3,N
1510239235.3,286046993.7,N
1510239255.1,286046994.5,N
1510239275.9,286046995.7,N
1510239295.7,286046994.9,N
1510239315.5,286046993.7,N
1510239335.4,286046995.5,N
1510239355.2,286046998.0,N
1510239375.0,286046995.3,N
1510239375.9,286046995.3,N
1510239395.8,286046993.9,N
1510239415.6,286046996.6,N
1510239435.4,286047000.8,N
1510239455.3,286047000.1,N
1510239475.1,286047000.6,N
1510239476.0,286047000.6,N
1510239495.8,286046999.2,N
1510239515.7,286046999.4,N
1510239535.5,286046996.7,N
1510239555.3,286046995.1,N
1510239575.2,286046994.5,N
1510239595.9,286046991.9,Y
